Погода в Рязани

Россия / Рязанская область     54°37′45″N   39°44′10″E
темп.,
°C
ветер,
м/с
пор.,
м/с
влажн.,
%
обл.,
%
осадки,
мм/ч
давл.,
гПа
погр.,
м
10 апреля, сб
сб1000:00+2юв22755 0.0 102710
03:00+1ююв22714 0.0 102811
06:00+1ююв22730 0.0 102827
09:00+6ююв34550 0.0 1028387
12:00+9ю34444 0.0 10271474
15:00+10ююз23405 0.0 10261655
18:00+9ююз11504 0.0 102622
21:00+5ююз22580 0.0 102710
11 апреля, вс
вс1100:00+4юз22610 0.0 102714
03:00+2зюз22670 0.0 102816
06:00+2юз22710 0.0 102910
09:00+7з12540 0.0 1030237
12:00+12зюз114276 0.0 1030866
15:00+13с1138100 0.0 10301070
18:00+12вюв114877 0.0 103110
21:00+8вюв3463100 0.0 103257
12 апреля, пн
пн1200:00+6всв2371100 0.0 103258
03:00+5всв3974100 0.0 1032207
06:00+4всв31164100 0.0 1032306
09:00+7всв51074100 0.0 1031362
12:00+12в5772100 0.0 1030704
15:00+14в5766100 0.0 1028774
18:00+14вюв497196 0.0 1027409
21:00+10в41190100 0.0 1027229
13 апреля, вт
вт1300:00+10юв41185100 0.0 1026197
03:00+8юв3118592 0.0 1026182
06:00+7юв4118342 0.0 1026186
09:00+13ююв51056100 0.0 1026353
12:00+18ююв684184 0.0 1024831
15:00+19ююв5836100 0.0 10241574
18:00+16ююв3750100 0.0 1023159
21:00+13юв375976 0.0 1023113
14 апреля, ср
ср1400:00+10юв31070100 0.0 1023171
03:00+10юв397485 0.0 1023159
06:00+8юв3107788 0.0 1022195
09:00+14ююв51055100 0.0 1022377
12:00+18ююв693696 0.0 10201017
15:00+20ююв693087 0.0 10191622
18:00+17ююв3647100 0.0 1018123
21:00+12ююв385534 0.0 1019129